This is the latest recevied weather packets stored in our database for station/object DL5ARK. If no packets are shown the sender has not sent any weather packets the latest 10 day(s).
| Time | Temp. | Humidity | Pressure | Rain* | Wind** | Luminosity | Snow |
|---|---|---|---|---|---|---|---|
| 1776935927 | 13.89° C | 56% | 1013.6 hPa | 0 mm | - | - | - |
| 1776935748 | 13.89° C | 57% | 1013.6 hPa | 0 mm | - | - | - |
| 1776935567 | 13.33° C | 55% | 1013.6 hPa | 0 mm | - | - | - |
| 1776935388 | 12.78° C | 59% | 1013.6 hPa | 0 mm | - | - | - |
| 1776935211 | 12.78° C | 57% | 1013.6 hPa | 0 mm | - | - | - |
| 1776935027 | 12.78° C | 58% | 1014.1 hPa | 0 mm | - | - | - |
| 1776934847 | 12.22° C | 57% | 1013.9 hPa | 0 mm | - | - | - |
| 1776934667 | 12.22° C | 58% | 1013.9 hPa | 0 mm | - | - | - |
| 1776934487 | 12.22° C | 59% | 1013.9 hPa | 0 mm | - | - | - |
| 1776934128 | 11.67° C | 57% | 1013.9 hPa | 0 mm | - | - | - |
| 1776933947 | 11.67° C | 58% | 1013.9 hPa | 0 mm | - | - | - |
| 1776933767 | 11.67° C | 57% | 1013.9 hPa | 0 mm | - | - | - |
| 1776933588 | 11.11° C | 56% | 1014.1 hPa | 0 mm | - | - | - |
| 1776933227 | 11.11° C | 57% | 1013.9 hPa | 0 mm | - | - | - |
| 1776933049 | 10.56° C | 57% | 1014.1 hPa | 0 mm | - | - | - |
| 1776932867 | 11.11° C | 58% | 1014.1 hPa | 0 mm | - | - | - |
| 1776932687 | 11.11° C | 59% | 1013.9 hPa | 0 mm | - | - | - |
| 1776932508 | 10.56° C | 59% | 1014.1 hPa | 0 mm | - | - | - |
| 1776932330 | 10.56° C | 60% | 1014.1 hPa | 0 mm | - | - | - |
| 1776932151 | 10.56° C | 59% | 1014.1 hPa | 0 mm | - | - | - |
| 1776931968 | 11.11° C | 61% | 1014.1 hPa | 0 mm | - | - | - |
| 1776931608 | 10.56° C | 61% | 1014.1 hPa | 0 mm | - | - | - |
| 1776931251 | 10.56° C | 62% | 1014.1 hPa | 0 mm | - | - | - |
| 1776931067 | 10° C | 62% | 1014.4 hPa | 0 mm | - | - | - |
| 1776930887 | 10° C | 62% | 1014.4 hPa | 0 mm | - | - | - |
* Rain latest hour (hover to see other rain measurements)
** Current wind speed in m/s (hover to see current wind gust speed)